Vancouver, WA

7:49 AM PST on February 19, 2017 (GMT -0800)
Pearson

Weather History for KVUO - December, 2012

Change the Weather History Date:

Wednesday, December 19, 2012

  Actual Average Record
Temperature  
Mean Temperature 44 °F 40 °F  
Max Temperature 51 °F 46 °F 61 °F (1994)
Min Temperature 37 °F 34 °F 3 °F (1924)
Degree Days  
Heating Degree Days 21    
Month to date heating degree days 388  
Since 1 July heating degree days 1210  
Cooling Degree Days 0    
Month to date cooling degree days 0  
Year to date cooling degree days 398  
Moisture  
Dew Point 36 °F    
Average Humidity 73    
Maximum Humidity 92    
Minimum Humidity 54    
Precipitation  
Precipitation 0.57 in 0.24 in 2.25 in (1941)
Month to date precipitation 5.11 4.03  
Year to date precipitation 43.43 36.40  
Snow  
Snow 0.00 in - - ()
Month to date snowfall 0.0  
Snow Depth 0.00 in    
Sea Level Pressure  
Sea Level Pressure 29.83 in    
Wind  
Wind Speed 9 mph (SE)    
Max Wind Speed 18 mph    
Max Gust Speed 28 mph    
Visibility 9 miles    
Events Rain    
T = Trace of Precipitation, MM = Missing Value Source: NWS Daily Summary

Daily Weather History Graph

Daily Weather History Graph

Search for Another Location

Airport or City:

Trip Planner

Search our weather history database for the weather conditions in past years. The results will help you decide how hot, cold, wet, or windy it might be!

Date:

Astronomy

Dec. 19, 2012 Rise Set
Actual Time 7:47 AM PST 4:28 PM PST
Civil Twilight 7:13 AM PST 5:03 PM PST
Nautical Twilight 6:35 AM PST 5:40 PM PST
Astronomical Twilight 5:59 AM PST 6:17 PM PST
Moon 11:38 AM PST No Moon Set
Length of Visible Light 9h 50m
Length of Day
8h 41m
Waxing Crescent, 46% of the Moon is Illuminated
Dec 19
Waxing Crescent
Dec 19
First Quarter
Dec 28
Full
Jan 4
Last Quarter
Jan 11
New

Hourly Weather History & Observations

Time (PST) Temp. Windchill Dew Point Humidity Pressure Visibility Wind Dir Wind Speed Gust Speed Precip Events Conditions
12:53 AM 37.9 °F 34.4 °F 33.1 °F 83% 30.04 in 10.0 mi SE 4.6 mph - 0.00 in   Overcast
1:53 AM 37.9 °F 33.5 °F 32.0 °F 79% 30.02 in 10.0 mi SE 5.8 mph - 0.00 in Rain Light Rain
2:18 AM 37.4 °F 30.8 °F 33.8 °F 87% 30.01 in 10.0 mi SSE 9.2 mph - 0.01 in Rain Light Rain
2:53 AM 37.9 °F 31.5 °F 34.0 °F 86% 29.99 in 9.0 mi ESE 9.2 mph - 0.02 in Rain Light Rain
3:53 AM 37.9 °F 32.1 °F 34.0 °F 86% 29.97 in 10.0 mi ESE 8.1 mph - 0.01 in Rain Light Rain
4:53 AM 37.9 °F 31.5 °F 34.0 °F 86% 29.95 in 10.0 mi SE 9.2 mph - 0.00 in Rain Light Rain
5:53 AM 37.9 °F 30.5 °F 34.0 °F 86% 29.92 in 10.0 mi ESE 11.5 mph - 0.00 in   Overcast
6:02 AM 37.4 °F 29.8 °F 33.8 °F 87% 29.92 in 10.0 mi ESE 11.5 mph - N/A   Overcast
6:53 AM 39.0 °F 32.8 °F 34.0 °F 82% 29.91 in 10.0 mi ESE 9.2 mph - 0.00 in   Overcast
7:32 AM 39.2 °F 35.0 °F 33.8 °F 81% 29.90 in 10.0 mi SSE 5.8 mph - 0.01 in Rain Light Rain
7:53 AM 37.9 °F 32.1 °F 34.0 °F 86% 29.90 in 10.0 mi ESE 8.1 mph - 0.01 in Rain Light Rain
8:53 AM 37.9 °F 30.5 °F 35.1 °F 89% 29.88 in 10.0 mi ESE 11.5 mph 19.6 mph 0.03 in Rain Light Rain
9:53 AM 37.9 °F 32.1 °F 35.1 °F 89% 29.88 in 8.0 mi SE 8.1 mph - 0.02 in Rain Light Rain
10:53 AM 39.0 °F 33.4 °F 36.0 °F 89% 29.85 in 6.0 mi ESE 8.1 mph - 0.03 in Rain Light Rain
11:37 AM 39.2 °F 33.0 °F 35.6 °F 87% 29.83 in 10.0 mi ESE 9.2 mph - 0.00 in   Overcast
11:53 AM 39.0 °F 32.8 °F 36.0 °F 89% 29.83 in 10.0 mi SE 9.2 mph - 0.00 in   Overcast
12:53 PM 39.9 °F 33.4 °F 37.0 °F 89% 29.79 in 10.0 mi ESE 10.4 mph - 0.01 in Rain Light Rain
1:53 PM 41.0 °F 35.8 °F 37.0 °F 86% 29.76 in 10.0 mi SE 8.1 mph 18.4 mph 0.00 in   Overcast
2:53 PM 44.1 °F 38.6 °F 36.0 °F 73% 29.73 in 9.0 mi SE 10.4 mph 20.7 mph 0.01 in Rain Light Rain
3:53 PM 50.0 °F - 36.0 °F 59% 29.72 in 10.0 mi South 11.5 mph 21.9 mph 0.00 in Rain Light Rain
4:53 PM 51.1 °F - 36.0 °F 56% 29.70 in 10.0 mi South 13.8 mph 23.0 mph 0.01 in Rain Light Rain
5:53 PM 50.0 °F - 37.9 °F 63% 29.71 in 8.0 mi SSW 11.5 mph 24.2 mph 0.02 in Rain Light Rain
6:53 PM 46.9 °F - 39.0 °F 74% 29.72 in 9.0 mi SSW 10.4 mph 21.9 mph 0.09 in Rain Light Rain
7:53 PM 43.0 °F 38.8 °F 39.9 °F 89% 29.70 in 6.0 mi SE 6.9 mph - 0.07 in Rain Rain
8:53 PM 41.0 °F 34.7 °F 37.9 °F 89% 29.67 in 9.0 mi ESE 10.4 mph 18.4 mph 0.08 in Rain Light Rain
9:53 PM 41.0 °F 35.8 °F 37.9 °F 89% 29.65 in 8.0 mi ESE 8.1 mph - 0.04 in Rain Light Rain
10:53 PM 42.1 °F 36.6 °F 39.0 °F 89% 29.64 in 8.0 mi ESE 9.2 mph - 0.07 in Rain Light Rain
11:53 PM 43.0 °F 36.8 °F 39.0 °F 86% 29.62 in 9.0 mi ESE 11.5 mph - 0.05 in Rain Light Rain